Regional Weather Roundup
Issued by NWS

Home | Current Version | Previous Version | Graphics & Text | Print | Product List | Glossary On
Versions: 1 2 3 4 5 6 7 8 9 10 11 12 13 14 15 16 17 18 19 20 21 22 23 24 25 26 27 28 29 30 31 32 33 34 35 36 37 38 39 40 41 42 43 44 45 46 47 48 49 50
000
ASUS43 KLSX 190310
RWRMO

WEATHER SUMMARY FOR MISSOURI
NATIONAL WEATHER SERVICE SPRINGFIELD MO
1000 PM CDT WED APR 18 2018

NOTE: "FAIR" INDICATES FEW OR NO CLOUDS BELOW 12,000 FEET WITH NO
       SIGNIFICANT WEATHER AND/OR OBSTRUCTIONS TO VISIBILITY.
       CURRENT SKY AND/OR WEATHER CONDITIONS ARE NOT AVAILABLE FOR
       CHILLICOTHE AND FARMINGTON.

MOZ001>031-035>038-043-044-053-054-190400-
...NORTHERN AND WESTERN MISSOURI...

CITY           SKY/WX    TMP DP  RH WIND       PRES   REMARKS
KANSAS CTY INT MOCLDY    38  25  59 NW12      30.21R
KANSAS C DTWN  CLEAR     41  25  53 NW7       30.21R
LEE`S SUMMIT   CLOUDY    40  25  55 NW15      30.21R
ST JOSEPH      CLOUDY    39  29  67 NW10      30.22R
CHILLICOTHE      N/A     38  24  57 NW9       30.19R
KIRKSVILLE     CLOUDY    36  28  73 NW12      30.14R WCI  28

$$
MOZ066>068-077>081-088>096-101>105-190400-
...SOUTHWEST MISSOURI...

CITY           SKY/WX    TMP DP  RH WIND       PRES   REMARKS
SPRINGFIELD    CLEAR     39  29  67 NW8       30.16R
JOPLIN         CLEAR     44  29  55 NW5       30.21R
BRANSON        CLEAR     46  28  49 NW20G25   30.16R

$$
MOZ032>034-039>042-045>050-055>058-069>072-190400-
...CENTRAL MISSOURI...

CITY           SKY/WX    TMP DP  RH WIND       PRES   REMARKS
COLUMBIA       CLOUDY    41  27  57 NW15      30.13R
JEFFERSON CITY CLOUDY    43  28  55 NW16      30.14R
ROLLA          CLOUDY    41  28  60 NW15G26   30.12R
WHITEMAN AFB   PTCLDY    40  25  54 NW15G24   30.15R
WARRENSBURG    CLOUDY    37  27  65 NW10      30.20R
OSAGE BEACH    CLOUDY    43  28  55 VRB7      30.16R

$$
MOZ051-052-059>065-190400-
...EAST CENTRAL MISSOURI...

CITY           SKY/WX    TMP DP  RH WIND       PRES   REMARKS
ST LOUIS INTL  CLOUDY    42  27  55 W20G35    30.07R
SPIRIT OF STL  CLOUDY    43  26  51 NW22G33   30.09R
ST CHARLES     CLOUDY    42  28  57 NW20G38   30.08R

$$
MOZ072>076-082>087-097>100-106>115-190400-
...SOUTH CENTRAL AND SOUTHEAST MISSOURI...

CITY           SKY/WX    TMP DP  RH WIND       PRES   REMARKS
CAPE GIRARDEAU FAIR      52  34  50 NW13G24   30.02R
FARMINGTON     CLOUDY    44  31  60 NW16G23   30.08R
POPLAR BLUFF   FAIR      54  35  48 NW15G28   30.03R
WEST PLAINS    CLEAR     46  31  55 NW15G33   30.12R

$$




USA.gov is the U.S. government's official web portal to all federal, state and local government web resources and services.